Weather History for Freeport, IL

Change the Weather History Date:

Thursday, January 24, 2013

  Actual Average Record
Temperature  
Mean Temperature 12 °F -  
Max Temperature 21 °F 30 °F 47 °F (1981)
Min Temperature 3 °F 15 °F -14 °F (2008)
Degree Days  
Heating Degree Days 53    
Moisture  
Dew Point -1 °F    
Average Humidity 56    
Maximum Humidity 69    
Minimum Humidity 34    
Precipitation  
Precipitation 0.00 in - - ()
Sea Level Pressure  
Sea Level Pressure 30.50 in    
Wind  
Wind Speed 8 mph (NE)    
Max Wind Speed 14 mph    
Max Gust Speed 20 mph    
Visibility 10 miles    
Events      
Averages and records for this station are not official NWS values.
T = Trace of Precipitation, MM = Missing Value Source: NWS Daily Summary

Daily Weather History Graph

Daily Weather History Graph

Search for Another Location

Airport:

Trip Planner

Search our weather history database for the weather conditions in past years. The results will help you decide how hot, cold, wet, or windy it might be!

Date:

Astronomy

Jan. 24, 2013 Rise Set
Actual Time 7:18 AM CST 5:02 PM CST
Civil Twilight 6:48 AM CST 5:33 PM CST
Nautical Twilight 6:14 AM CST 6:07 PM CST
Astronomical Twilight 5:41 AM CST 6:40 PM CST
Moon 3:04 PM CST (1/24) 5:16 AM CST (1/24)
Length of Visible Light 10h 44m
Length of Day
9h 44m
Waxing Gibbous, 94% of the Moon is Illuminated
Jan 24
Waxing Gibbous
Jan 26
Full
Feb 3
Last Quarter
Feb 10
New
Feb 17
First Quarter

Hourly Weather History & Observations

Time (CST) Temp. Windchill Dew Point Humidity Pressure Visibility Wind Dir Wind Speed Gust Speed Precip Events Conditions
12:15 AM 8.6 °F -5.5 °F 0.1 °F 68% 30.42 in 10.0 mi NNW 10.4 mph 16.1 mph N/A   Clear
12:35 AM 8.1 °F -6.2 °F -0.2 °F 69% 30.43 in 10.0 mi NW 10.4 mph 19.6 mph N/A   Clear
1:15 AM 6.8 °F -7.8 °F -2.2 °F 67% 30.47 in 10.0 mi NW 10.4 mph 17.3 mph N/A   Clear
1:35 AM 6.6 °F -8.0 °F -3.1 °F 64% 30.48 in 10.0 mi NNW 10.4 mph 16.1 mph N/A   Clear
1:55 AM 5.9 °F -9.7 °F -3.8 °F 64% 30.49 in 10.0 mi NNW 11.5 mph 17.3 mph N/A   Clear
2:15 AM 5.7 °F -6.1 °F -4.0 °F 64% 30.51 in 10.0 mi NW 6.9 mph - N/A   Clear
2:35 AM 5.0 °F -9.1 °F -4.9 °F 64% 30.51 in 10.0 mi NNW 9.2 mph - N/A   Clear
2:55 AM 4.8 °F -8.3 °F -4.9 °F 64% 30.51 in 10.0 mi NNW 8.1 mph - N/A   Clear
3:15 AM 4.6 °F -7.4 °F -5.3 °F 64% 30.52 in 10.0 mi NNW 6.9 mph - N/A   Clear
3:35 AM 4.6 °F -9.5 °F -5.3 °F 64% 30.53 in 10.0 mi NNW 9.2 mph - N/A   Clear
3:55 AM 4.1 °F -12.0 °F -5.4 °F 65% 30.54 in 10.0 mi NNW 11.5 mph - N/A   Clear
4:15 AM 4.1 °F -12.0 °F -5.4 °F 65% 30.54 in 10.0 mi NW 11.5 mph - N/A   Clear
4:35 AM 3.7 °F -10.6 °F -5.4 °F 66% 30.54 in 10.0 mi NNW 9.2 mph - N/A   Clear
4:55 AM 3.9 °F -6.9 °F -5.8 °F 64% 30.56 in 10.0 mi NNW 5.8 mph - N/A   Clear
5:15 AM 3.7 °F -8.4 °F -5.8 °F 65% 30.57 in 10.0 mi NNW 6.9 mph - N/A   Clear
5:35 AM 3.6 °F -7.3 °F -5.8 °F 65% 30.56 in 10.0 mi NNW 5.8 mph - N/A   Clear
5:55 AM 3.4 °F -8.9 °F -6.0 °F 65% 30.59 in 10.0 mi NNW 6.9 mph - N/A   Clear
6:15 AM 3.2 °F -6.2 °F -5.3 °F 68% 30.57 in 10.0 mi North 4.6 mph - N/A   Clear
6:35 AM 3.2 °F -13.1 °F -5.4 °F 67% 30.57 in 10.0 mi North 11.5 mph - N/A   Clear
6:55 AM 3.6 °F -7.3 °F -5.8 °F 65% 30.59 in 10.0 mi North 5.8 mph - N/A   Clear
7:15 AM 3.4 °F -7.5 °F -5.8 °F 66% 30.59 in 10.0 mi NNW 5.8 mph - N/A   Clear
7:35 AM 3.6 °F -7.3 °F -5.6 °F 66% 30.59 in 10.0 mi North 5.8 mph - N/A   Clear
7:55 AM 4.1 °F -10.2 °F -4.9 °F 66% 30.60 in 10.0 mi North 9.2 mph - N/A   Clear
8:15 AM 4.6 °F -9.5 °F -4.9 °F 65% 30.62 in 10.0 mi North 9.2 mph - N/A   Clear
8:35 AM 5.0 °F -9.1 °F -4.5 °F 65% 30.63 in 10.0 mi North 9.2 mph - N/A   Clear
8:55 AM 5.9 °F -7.0 °F -4.0 °F 64% 30.63 in 10.0 mi North 8.1 mph - N/A   Clear
9:15 AM 6.8 °F -4.8 °F -3.6 °F 62% 30.64 in 10.0 mi North 6.9 mph - N/A   Clear
9:35 AM 7.0 °F -4.5 °F -4.0 °F 61% 30.64 in 10.0 mi NNE 6.9 mph - N/A   Clear
9:55 AM 7.7 °F -3.7 °F -3.5 °F 60% 30.63 in 10.0 mi NNE 6.9 mph - N/A   Clear
10:15 AM 8.2 °F -4.1 °F -3.1 °F 60% 30.63 in 10.0 mi NE 8.1 mph - N/A   Clear
10:35 AM 9.0 °F -0.9 °F -2.7 °F 59% 30.63 in 10.0 mi NE 5.8 mph - N/A   Clear
10:55 AM 10.2 °F -0.6 °F -2.0 °F 58% 30.62 in 10.0 mi NE 6.9 mph - N/A   Clear
11:15 AM 11.1 °F 3.1 °F -1.3 °F 57% 30.62 in 10.0 mi NE 4.6 mph - N/A   Clear
11:35 AM 11.1 °F 4.9 °F -1.8 °F 56% 30.61 in 10.0 mi NNE 3.5 mph - N/A   Clear
12:15 PM 13.6 °F 7.7 °F -0.9 °F 52% 30.59 in 10.0 mi NNE 3.5 mph - N/A   Clear
12:55 PM 14.2 °F 8.4 °F -3.3 °F 46% 30.58 in 10.0 mi North 3.5 mph - N/A   Clear
1:15 PM 16.2 °F - -3.3 °F 42% 30.56 in 10.0 mi Calm Calm - N/A   Clear
1:35 PM 16.2 °F - -4.2 °F 41% 30.55 in 10.0 mi Calm Calm - N/A   Clear
1:55 PM 17.6 °F - -3.5 °F 39% 30.53 in 10.0 mi Calm Calm - N/A   Clear
2:15 PM 18.5 °F 10.4 °F -4.7 °F 36% 30.53 in 10.0 mi ENE 5.8 mph - N/A   Clear
2:35 PM 18.5 °F 10.4 °F -4.5 °F 36% 30.53 in 10.0 mi East 5.8 mph - N/A   Scattered Clouds
2:55 PM 18.5 °F - -4.7 °F 36% 30.53 in 10.0 mi Calm Calm - N/A   Mostly Cloudy
3:15 PM 19.2 °F 10.2 °F -5.3 °F 34% 30.52 in 10.0 mi ESE 6.9 mph - N/A   Overcast
3:35 PM 19.6 °F 10.6 °F -4.4 °F 35% 30.51 in 10.0 mi ESE 6.9 mph - N/A   Scattered Clouds
3:55 PM 19.2 °F 10.2 °F -3.5 °F 37% 30.50 in 10.0 mi East 6.9 mph - N/A   Clear
4:15 PM 19.2 °F 10.2 °F -2.2 °F 39% 30.49 in 10.0 mi ESE 6.9 mph - N/A   Clear
4:35 PM 19.2 °F 9.3 °F -1.3 °F 41% 30.50 in 10.0 mi ESE 8.1 mph - N/A   Clear
4:55 PM 19.0 °F 10.0 °F -0.9 °F 42% 30.48 in 10.0 mi East 6.9 mph - N/A   Clear
5:15 PM 18.9 °F 10.8 °F -0.6 °F 43% 30.47 in 10.0 mi East 5.8 mph - N/A   Clear
5:35 PM 18.9 °F 8.8 °F 0.5 °F 45% 30.46 in 10.0 mi East 8.1 mph - N/A   Clear
5:55 PM 18.9 °F 8.0 °F 2.1 °F 48% 30.46 in 10.0 mi East 9.2 mph - N/A   Clear
6:15 PM 18.5 °F 8.4 °F 3.2 °F 51% 30.45 in 10.0 mi East 8.1 mph - N/A   Clear
6:35 PM 18.5 °F 9.3 °F 5.4 °F 57% 30.42 in 10.0 mi East 6.9 mph - N/A   Clear
6:55 PM 18.9 °F 12.1 °F 5.9 °F 57% 30.42 in 10.0 mi East 4.6 mph - N/A   Clear
7:15 PM 19.0 °F 12.3 °F 7.2 °F 60% 30.42 in 10.0 mi ESE 4.6 mph - N/A   Clear
7:35 PM 19.9 °F 13.4 °F 7.5 °F 59% 30.41 in 10.0 mi East 4.6 mph - N/A   Clear
7:55 PM 19.9 °F 14.9 °F 7.5 °F 59% 30.41 in 10.0 mi East 3.5 mph - N/A   Clear
8:15 PM 19.9 °F 14.9 °F 7.9 °F 60% 30.41 in 10.0 mi East 3.5 mph - N/A   Clear
8:35 PM 19.9 °F 11.1 °F 7.9 °F 60% 30.39 in 10.0 mi ESE 6.9 mph - N/A   Clear
8:55 PM 21.0 °F 12.4 °F 8.4 °F 58% 30.39 in 10.0 mi East 6.9 mph - N/A   Clear
9:15 PM 21.2 °F 12.6 °F 8.4 °F 58% 30.39 in 10.0 mi East 6.9 mph - N/A   Clear
9:35 PM 21.2 °F 10.9 °F 7.7 °F 56% 30.37 in 10.0 mi ESE 9.2 mph - N/A   Clear
9:55 PM 21.2 °F 9.5 °F 6.8 °F 54% 30.34 in 10.0 mi ESE 11.5 mph - N/A   Clear
10:15 PM 21.2 °F 8.3 °F 5.5 °F 51% 30.33 in 10.0 mi ESE 13.8 mph 18.4 mph N/A   Scattered Clouds
10:35 PM 21.2 °F 8.3 °F 4.5 °F 49% 30.33 in 10.0 mi ESE 13.8 mph - N/A   Scattered Clouds
10:55 PM 21.2 °F 10.1 °F 4.3 °F 48% 30.34 in 10.0 mi SE 10.4 mph - N/A   Scattered Clouds
11:15 PM 21.2 °F 9.5 °F 4.1 °F 48% 30.35 in 10.0 mi ESE 11.5 mph - N/A   Mostly Cloudy
11:35 PM 21.2 °F 9.5 °F 4.3 °F 48% 30.34 in 10.0 mi ESE 11.5 mph - N/A   Overcast
11:55 PM 21.2 °F 8.9 °F 4.5 °F 49% 30.32 in 10.0 mi ESE 12.7 mph - N/A   Overcast